Location: Taukkyan
(23.1052°N, 94.0030°E)
Time: 11:48:17
(UTC+00:00)

Spot 4 Rocket - Pass Details

Date: 06 July 2020
Orbit: 777 x 780 km, 98.7° (Epoch: 14 August)

Event Time Altitude Azimuth Distance (km) Brightness Sun altitude
Rises 20:58:35 0° 4° (N) 3,258 7.9 -25.1°
Reaches altitude 10° 21:00:57 10° 360° (N) 2,329 7.0 -24.7°
Maximum altitude 21:05:54 50° 285° (WNW) 981 4.3 -23.8°
Enters shadow 21:06:00 50° 281° (W) 982 4.2 -23.8°
